Overview Statistics Trail Chart Weather Telemetry Raw packets
 

This is the latest recevied weather packets stored in our database for station/object SR3AK-10. If no packets are shown the sender has not sent any weather packets the latest 10 day(s).

<< 15 16 17 18 19 20 21 >>
Time Temp. Humidity Pressure Rain* Wind** Luminosity Snow
1777277274 13.89° C 52% 1019.3 hPa - - - -
1777276374 13.89° C 52% 1019.3 hPa - - - -
1777275474 13.89° C 51% 1019.4 hPa - - - -
1777274574 14.44° C 50% 1019.4 hPa - - - -
1777273674 14.44° C 50% 1019.4 hPa - - - -
1777272773 15° C 49% 1019.5 hPa - - - -
1777271871 15° C 49% 1019.5 hPa - - - -
1777270971 13.33° C 52% 1019.6 hPa - - - -
1777270070 12.22° C 55% 1019.5 hPa - - - -
1777269170 12.78° C 54% 1019.6 hPa - - - -
1777268270 13.33° C 52% 1019.6 hPa - - - -
1777267369 13.33° C 51% 1019.6 hPa - - - -
1777266469 13.33° C 52% 1019.5 hPa - - - -
1777265569 12.22° C 55% 1019.5 hPa - - - -
1777264668 11.67° C 56% 1019.3 hPa - - - -
1777263768 11.67° C 56% 1019.2 hPa - - - -
1777262867 11.67° C 56% 1019.2 hPa - - - -
1777261967 11.67° C 56% 1019.2 hPa - - - -
1777261067 11.67° C 57% 1019.3 hPa - - - -
1777260167 11.67° C 56% 1019.4 hPa - - - -
1777259267 11.67° C 57% 1019.3 hPa - - - -
1777258366 11.67° C 57% 1019.4 hPa - - - -
1777257466 12.22° C 57% 1019.4 hPa - - - -
1777256566 12.22° C 57% 1019.4 hPa - - - -
1777255665 12.22° C 57% 1019.4 hPa - - - -

* Rain since midnight (hover to see other rain measurements)
** Current wind speed in m/s (hover to see current wind gust speed)